Year,Month,Day,Hour,Minute,Value (Times are PST for windgust in km/hr)
2018,02,25,00,00,20.90
2018,02,25,00,01,16.10
2018,02,25,00,02,19.30
2018,02,25,00,03,16.10
2018,02,25,00,04,25.70
2018,02,25,00,05,20.90
2018,02,25,00,06,29.00
2018,02,25,00,07,24.20
2018,02,25,00,08,24.20
2018,02,25,00,09,19.30
2018,02,25,00,10,16.10
2018,02,25,00,11,22.50
2018,02,25,00,12,20.90
2018,02,25,00,13,19.30
2018,02,25,00,14,14.50
2018,02,25,00,15,14.50
2018,02,25,00,16,9.60
2018,02,25,00,17,16.10
2018,02,25,00,18,12.90
2018,02,25,00,19,14.50
2018,02,25,00,20,14.50
2018,02,25,00,21,17.70
2018,02,25,00,22,14.50
2018,02,25,00,23,16.10
2018,02,25,00,24,16.10
2018,02,25,00,25,12.90
2018,02,25,00,26,14.50
2018,02,25,00,27,11.30
2018,02,25,00,28,11.30
2018,02,25,00,29,6.40
2018,02,25,00,30,8.10
2018,02,25,00,31,14.50
2018,02,25,00,32,12.90
2018,02,25,00,33,12.90
2018,02,25,00,34,16.10
2018,02,25,00,35,9.60
2018,02,25,00,36,8.10
2018,02,25,00,37,11.30
2018,02,25,00,38,8.10
2018,02,25,00,39,6.40
2018,02,25,00,40,4.80
2018,02,25,00,41,4.80
2018,02,25,00,42,1.60
2018,02,25,00,43,3.20
2018,02,25,00,44,4.80
2018,02,25,00,45,4.80
2018,02,25,00,46,14.50
2018,02,25,00,47,11.30
2018,02,25,00,48,12.90
2018,02,25,00,49,9.60
2018,02,25,00,50,4.80
2018,02,25,00,51,9.60
2018,02,25,00,52,6.40
2018,02,25,00,53,14.50
2018,02,25,00,54,12.90
2018,02,25,00,55,9.60
2018,02,25,00,56,11.30
2018,02,25,00,57,14.50
2018,02,25,00,58,8.10
2018,02,25,00,59,8.10
2018,02,25,01,00,11.30
2018,02,25,01,01,12.90
2018,02,25,01,02,12.90
2018,02,25,01,03,12.90
2018,02,25,01,04,6.40
2018,02,25,01,05,8.10
2018,02,25,01,06,8.10
2018,02,25,01,07,14.50
2018,02,25,01,08,9.60
2018,02,25,01,09,12.90
2018,02,25,01,10,11.30
2018,02,25,01,11,12.90
2018,02,25,01,12,11.30
2018,02,25,01,13,14.50
2018,02,25,01,14,12.90
2018,02,25,01,15,11.30
2018,02,25,01,16,8.10
2018,02,25,01,17,6.40
2018,02,25,01,18,8.10
2018,02,25,01,19,9.60
2018,02,25,01,20,6.40
2018,02,25,01,21,17.70
2018,02,25,01,22,14.50
2018,02,25,01,23,16.10
2018,02,25,01,24,16.10
2018,02,25,01,25,12.90
2018,02,25,01,26,16.10
2018,02,25,01,27,16.10
2018,02,25,01,28,16.10
2018,02,25,01,29,16.10
2018,02,25,01,30,16.10
2018,02,25,01,31,19.30
2018,02,25,01,32,11.30
2018,02,25,01,33,9.60
2018,02,25,01,34,11.30
2018,02,25,01,35,12.90
2018,02,25,01,36,8.10
2018,02,25,01,37,6.40
2018,02,25,01,38,8.10
2018,02,25,01,39,6.40
2018,02,25,01,40,6.40
2018,02,25,01,41,6.40
2018,02,25,01,42,12.90
2018,02,25,01,43,12.90
2018,02,25,01,44,12.90
2018,02,25,01,45,8.10
2018,02,25,01,46,6.40
2018,02,25,01,47,12.90
2018,02,25,01,48,6.40
2018,02,25,01,49,8.10
2018,02,25,01,50,8.10
2018,02,25,01,51,11.30
2018,02,25,01,52,12.90
2018,02,25,01,53,8.10
2018,02,25,01,54,1.60
2018,02,25,01,55,9.60
2018,02,25,01,56,11.30
2018,02,25,01,57,11.30
2018,02,25,01,58,6.40
2018,02,25,01,59,8.10
2018,02,25,02,00,14.50
2018,02,25,02,01,16.10
2018,02,25,02,02,16.10
2018,02,25,02,03,14.50
2018,02,25,02,04,11.30
2018,02,25,02,05,14.50
2018,02,25,02,06,11.30
2018,02,25,02,07,16.10
2018,02,25,02,08,16.10
2018,02,25,02,09,12.90
2018,02,25,02,10,12.90
2018,02,25,02,11,19.30
2018,02,25,02,12,20.90
2018,02,25,02,13,20.90
2018,02,25,02,14,17.70
2018,02,25,02,15,30.60
2018,02,25,02,16,24.20
2018,02,25,02,17,27.40
2018,02,25,02,18,16.10
2018,02,25,02,19,14.50
2018,02,25,02,20,17.70
2018,02,25,02,21,14.50
2018,02,25,02,22,14.50
2018,02,25,02,23,12.90
2018,02,25,02,24,11.30
2018,02,25,02,25,8.10
2018,02,25,02,26,8.10
2018,02,25,02,27,6.40
2018,02,25,02,28,3.20
2018,02,25,02,30,1.60
2018,02,25,02,31,6.40
2018,02,25,02,32,1.60
2018,02,25,02,33,6.40
2018,02,25,02,34,6.40
2018,02,25,02,35,4.80
2018,02,25,02,36,4.80
2018,02,25,02,37,4.80
2018,02,25,02,38,4.80
2018,02,25,02,39,4.80
2018,02,25,02,40,3.20
2018,02,25,02,41,6.40
2018,02,25,02,42,9.60
2018,02,25,02,43,11.30
2018,02,25,02,44,14.50
2018,02,25,02,45,11.30
2018,02,25,02,46,12.90
2018,02,25,02,47,16.10
2018,02,25,02,48,22.50
2018,02,25,02,49,16.10
2018,02,25,02,50,32.20
2018,02,25,02,51,33.80
2018,02,25,02,52,25.70
2018,02,25,02,53,30.60
2018,02,25,02,54,22.50
2018,02,25,02,55,30.60
2018,02,25,02,56,27.40
2018,02,25,02,57,27.40
2018,02,25,02,58,27.40
2018,02,25,02,59,30.60
2018,02,25,03,00,16.10
2018,02,25,03,01,25.70
2018,02,25,03,02,29.00
2018,02,25,03,03,19.30
2018,02,25,03,04,20.90
2018,02,25,03,05,25.70
2018,02,25,03,06,22.50
2018,02,25,03,07,30.60
2018,02,25,03,08,24.20
2018,02,25,03,09,20.90
2018,02,25,03,10,24.20
2018,02,25,03,11,22.50
2018,02,25,03,12,22.50
2018,02,25,03,13,30.60
2018,02,25,03,14,29.00
2018,02,25,03,15,29.00
2018,02,25,03,16,29.00
2018,02,25,03,17,22.50
2018,02,25,03,18,17.70
2018,02,25,03,19,27.40
2018,02,25,03,20,30.60
2018,02,25,03,21,20.90
2018,02,25,03,22,25.70
2018,02,25,03,23,32.20
2018,02,25,03,24,25.70
2018,02,25,03,25,27.40
2018,02,25,03,26,38.60
2018,02,25,03,27,32.20
2018,02,25,03,28,32.20
2018,02,25,03,29,32.20
2018,02,25,03,30,35.40
2018,02,25,03,31,25.70
2018,02,25,03,32,25.70
2018,02,25,03,33,19.30
2018,02,25,03,34,30.60
2018,02,25,03,35,16.10
2018,02,25,03,36,40.20
2018,02,25,03,37,43.50
2018,02,25,03,38,22.50
2018,02,25,03,39,20.90
2018,02,25,03,40,14.50
2018,02,25,03,41,30.60
2018,02,25,03,42,32.20
2018,02,25,03,43,25.70
2018,02,25,03,44,20.90
2018,02,25,03,45,37.00
2018,02,25,03,46,35.40
2018,02,25,03,47,20.90
2018,02,25,03,48,20.90
2018,02,25,03,49,20.90
2018,02,25,03,50,22.50
2018,02,25,03,51,17.70
2018,02,25,03,52,22.50
2018,02,25,03,53,24.20
2018,02,25,03,54,27.40
2018,02,25,03,55,32.20
2018,02,25,03,56,17.70
2018,02,25,03,57,29.00
2018,02,25,03,58,20.90
2018,02,25,03,59,19.30
2018,02,25,04,00,20.90
2018,02,25,04,01,16.10
2018,02,25,04,02,19.30
2018,02,25,04,03,29.00
2018,02,25,04,04,32.20
2018,02,25,04,05,38.60
2018,02,25,04,06,33.80
2018,02,25,04,07,27.40
2018,02,25,04,08,35.40
2018,02,25,04,09,29.00
2018,02,25,04,10,27.40
2018,02,25,04,11,29.00
2018,02,25,04,12,27.40
2018,02,25,04,13,22.50
2018,02,25,04,14,35.40
2018,02,25,04,15,41.80
2018,02,25,04,16,32.20
2018,02,25,04,17,40.20
2018,02,25,04,18,45.10
2018,02,25,04,19,30.60
2018,02,25,04,20,24.20
2018,02,25,04,21,24.20
2018,02,25,04,22,20.90
2018,02,25,04,23,25.70
2018,02,25,04,24,25.70
2018,02,25,04,25,22.50
2018,02,25,04,26,24.20
2018,02,25,04,27,32.20
2018,02,25,04,28,27.40
2018,02,25,04,29,25.70
2018,02,25,04,30,33.80
2018,02,25,04,31,25.70
2018,02,25,04,32,33.80
2018,02,25,04,33,20.90
2018,02,25,04,34,37.00
2018,02,25,04,35,25.70
2018,02,25,04,36,40.20
2018,02,25,04,37,27.40
2018,02,25,04,38,22.50
2018,02,25,04,39,35.40
2018,02,25,04,40,25.70
2018,02,25,04,41,27.40
2018,02,25,04,42,20.90
2018,02,25,04,43,25.70
2018,02,25,04,44,29.00
2018,02,25,04,45,30.60
2018,02,25,04,46,30.60
2018,02,25,04,47,25.70
2018,02,25,04,48,27.40
2018,02,25,04,49,30.60
2018,02,25,04,50,24.20
2018,02,25,04,51,37.00
2018,02,25,04,52,33.80
2018,02,25,04,53,38.60
2018,02,25,04,54,43.50
2018,02,25,04,55,41.80
2018,02,25,04,56,29.00
2018,02,25,04,57,33.80
2018,02,25,04,58,20.90
2018,02,25,04,59,37.00
2018,02,25,05,00,37.00
2018,02,25,05,01,32.20
2018,02,25,05,02,32.20
2018,02,25,05,03,35.40
2018,02,25,05,04,41.80
2018,02,25,05,05,40.20
2018,02,25,05,06,17.70
2018,02,25,05,07,30.60
2018,02,25,05,08,30.60
2018,02,25,05,09,33.80
2018,02,25,05,10,33.80
2018,02,25,05,11,20.90
2018,02,25,05,12,30.60
2018,02,25,05,13,38.60
2018,02,25,05,14,35.40
2018,02,25,05,15,19.30
2018,02,25,05,16,37.00
2018,02,25,05,17,32.20
2018,02,25,05,18,25.70
2018,02,25,05,19,38.60
2018,02,25,05,20,30.60
2018,02,25,05,21,24.20
2018,02,25,05,22,22.50
2018,02,25,05,23,17.70
2018,02,25,05,24,24.20
2018,02,25,05,25,19.30
2018,02,25,05,26,20.90
2018,02,25,05,27,17.70
2018,02,25,05,28,19.30
2018,02,25,05,29,20.90
2018,02,25,05,30,27.40
2018,02,25,05,31,22.50
2018,02,25,05,32,27.40
2018,02,25,05,33,24.20
2018,02,25,05,34,12.90
2018,02,25,05,35,17.70
2018,02,25,05,36,16.10
2018,02,25,05,37,27.40
2018,02,25,05,38,22.50
2018,02,25,05,39,27.40
2018,02,25,05,40,37.00
2018,02,25,05,41,22.50
2018,02,25,05,42,19.30
2018,02,25,05,43,32.20
2018,02,25,05,44,25.70
2018,02,25,05,45,16.10
2018,02,25,05,46,19.30
2018,02,25,05,47,16.10
2018,02,25,05,48,20.90
2018,02,25,05,49,22.50
2018,02,25,05,50,22.50
2018,02,25,05,51,19.30
2018,02,25,05,52,16.10
2018,02,25,05,53,19.30
2018,02,25,05,54,22.50
2018,02,25,05,55,29.00
2018,02,25,05,56,27.40
2018,02,25,05,57,20.90
2018,02,25,05,58,27.40
2018,02,25,05,59,29.00
2018,02,25,06,00,16.10
2018,02,25,06,01,19.30
2018,02,25,06,02,14.50
2018,02,25,06,03,27.40
2018,02,25,06,04,33.80
2018,02,25,06,05,25.70
2018,02,25,06,06,22.50
2018,02,25,06,07,22.50
2018,02,25,06,08,19.30
2018,02,25,06,09,14.50
2018,02,25,06,10,11.30
2018,02,25,06,11,24.20
2018,02,25,06,12,25.70
2018,02,25,06,13,22.50
2018,02,25,06,14,12.90
2018,02,25,06,15,27.40
2018,02,25,06,16,19.30
2018,02,25,06,17,30.60
2018,02,25,06,18,20.90
2018,02,25,06,19,14.50
2018,02,25,06,20,19.30
2018,02,25,06,21,25.70
2018,02,25,06,22,25.70
2018,02,25,06,23,20.90
2018,02,25,06,24,17.70
2018,02,25,06,25,19.30
2018,02,25,06,26,24.20
2018,02,25,06,27,22.50
2018,02,25,06,28,29.00
2018,02,25,06,29,22.50
2018,02,25,06,30,35.40
2018,02,25,06,31,27.40
2018,02,25,06,32,14.50
2018,02,25,06,33,11.30
2018,02,25,06,34,19.30
2018,02,25,06,35,16.10
2018,02,25,06,36,6.40
2018,02,25,06,37,9.60
2018,02,25,06,38,16.10
2018,02,25,06,39,24.20
2018,02,25,06,40,14.50
2018,02,25,06,41,30.60
2018,02,25,06,42,25.70
2018,02,25,06,43,19.30
2018,02,25,06,44,17.70
2018,02,25,06,45,17.70
2018,02,25,06,46,24.20
2018,02,25,06,47,24.20
2018,02,25,06,48,19.30
2018,02,25,06,49,19.30
2018,02,25,06,50,27.40
2018,02,25,06,51,33.80
2018,02,25,06,52,32.20
2018,02,25,06,53,37.00
2018,02,25,06,54,24.20
2018,02,25,06,55,25.70
2018,02,25,06,56,35.40
2018,02,25,06,57,25.70
2018,02,25,06,58,22.50
2018,02,25,06,59,22.50
2018,02,25,07,00,20.90
2018,02,25,07,01,30.60
2018,02,25,07,02,27.40
2018,02,25,07,03,24.20
2018,02,25,07,04,12.90
2018,02,25,07,05,16.10
2018,02,25,07,06,16.10
2018,02,25,07,07,22.50
2018,02,25,07,08,17.70
2018,02,25,07,09,14.50
2018,02,25,07,10,9.60
2018,02,25,07,11,16.10
2018,02,25,07,12,14.50
2018,02,25,07,13,12.90
2018,02,25,07,14,12.90
2018,02,25,07,15,11.30
2018,02,25,07,16,19.30
2018,02,25,07,17,16.10
2018,02,25,07,18,12.90
2018,02,25,07,19,12.90
2018,02,25,07,20,9.60
2018,02,25,07,21,12.90
2018,02,25,07,22,11.30
2018,02,25,07,23,20.90
2018,02,25,07,24,20.90
2018,02,25,07,25,19.30
2018,02,25,07,26,6.40
2018,02,25,07,27,11.30
2018,02,25,07,28,4.80
2018,02,25,07,29,4.80
2018,02,25,07,30,17.70
2018,02,25,07,31,19.30
2018,02,25,07,32,19.30
2018,02,25,07,33,19.30
2018,02,25,07,34,22.50
2018,02,25,07,35,12.90
2018,02,25,07,36,12.90
2018,02,25,07,37,16.10
2018,02,25,07,38,16.10
2018,02,25,07,39,19.30
2018,02,25,07,40,20.90
2018,02,25,07,41,20.90
2018,02,25,07,42,20.90
2018,02,25,07,43,12.90
2018,02,25,07,44,16.10
2018,02,25,07,45,25.70
2018,02,25,07,46,32.20
2018,02,25,07,47,25.70
2018,02,25,07,48,22.50
2018,02,25,07,49,19.30
2018,02,25,07,50,22.50
2018,02,25,07,51,24.20
2018,02,25,07,52,24.20
2018,02,25,07,53,29.00
2018,02,25,07,54,19.30
2018,02,25,07,55,30.60
2018,02,25,07,56,20.90
2018,02,25,07,57,27.40
2018,02,25,07,58,29.00
2018,02,25,07,59,30.60
2018,02,25,08,00,32.20
2018,02,25,08,01,19.30
2018,02,25,08,02,40.20
2018,02,25,08,03,25.70
2018,02,25,08,04,30.60
2018,02,25,08,05,37.00
2018,02,25,08,06,30.60
2018,02,25,08,07,29.00
2018,02,25,08,08,22.50
2018,02,25,08,09,29.00
2018,02,25,08,10,35.40
2018,02,25,08,11,30.60
2018,02,25,08,12,25.70
2018,02,25,08,13,20.90
2018,02,25,08,14,32.20
2018,02,25,08,15,33.80
2018,02,25,08,16,29.00
2018,02,25,08,17,25.70
2018,02,25,08,18,27.40
2018,02,25,08,19,20.90
2018,02,25,08,20,22.50
2018,02,25,08,21,22.50
2018,02,25,08,22,19.30
2018,02,25,08,23,22.50
2018,02,25,08,24,32.20
2018,02,25,08,25,22.50
2018,02,25,08,26,30.60
2018,02,25,08,27,24.20
2018,02,25,08,28,16.10
2018,02,25,08,29,17.70
2018,02,25,08,30,22.50
2018,02,25,08,31,24.20
2018,02,25,08,32,24.20
2018,02,25,08,33,25.70
2018,02,25,08,34,24.20
2018,02,25,08,35,27.40
2018,02,25,08,36,22.50
2018,02,25,08,37,24.20
2018,02,25,08,38,17.70
2018,02,25,08,39,14.50
2018,02,25,08,40,24.20
2018,02,25,08,41,24.20
2018,02,25,08,42,24.20
2018,02,25,08,43,35.40
2018,02,25,08,44,33.80
2018,02,25,08,45,32.20
2018,02,25,08,46,22.50
2018,02,25,08,47,20.90
2018,02,25,08,48,19.30
2018,02,25,08,49,27.40
2018,02,25,08,50,30.60
2018,02,25,08,51,29.00
2018,02,25,08,52,33.80
2018,02,25,08,53,37.00
2018,02,25,08,54,27.40
2018,02,25,08,55,30.60
2018,02,25,08,56,24.20
2018,02,25,08,57,29.00
2018,02,25,08,58,24.20
2018,02,25,08,59,25.70
2018,02,25,09,00,17.70
2018,02,25,09,01,24.20
2018,02,25,09,02,20.90
2018,02,25,09,03,25.70
2018,02,25,09,04,24.20
2018,02,25,09,05,24.20
2018,02,25,09,06,22.50
2018,02,25,09,07,25.70
2018,02,25,09,08,20.90
2018,02,25,09,09,25.70
2018,02,25,09,10,29.00
2018,02,25,09,11,20.90
2018,02,25,09,12,25.70
2018,02,25,09,13,22.50
2018,02,25,09,14,17.70
2018,02,25,09,15,20.90
2018,02,25,09,16,32.20
2018,02,25,09,17,32.20
2018,02,25,09,18,25.70
2018,02,25,09,19,20.90
2018,02,25,09,20,22.50
2018,02,25,09,21,22.50
2018,02,25,09,22,30.60
2018,02,25,09,23,24.20
2018,02,25,09,24,29.00
2018,02,25,09,25,16.10
2018,02,25,09,26,19.30
2018,02,25,09,27,24.20
2018,02,25,09,28,17.70
2018,02,25,09,29,29.00
2018,02,25,09,30,22.50
2018,02,25,09,31,37.00
2018,02,25,09,32,32.20
2018,02,25,09,33,24.20
2018,02,25,09,34,29.00
2018,02,25,09,35,24.20
2018,02,25,09,36,22.50
2018,02,25,09,37,24.20
2018,02,25,09,38,29.00
2018,02,25,09,39,25.70
2018,02,25,09,40,25.70
2018,02,25,09,41,20.90
2018,02,25,09,42,32.20
2018,02,25,09,43,32.20
2018,02,25,09,44,33.80
2018,02,25,09,45,30.60
2018,02,25,09,46,27.40
2018,02,25,09,47,32.20
2018,02,25,09,48,29.00
2018,02,25,09,49,27.40
2018,02,25,09,50,16.10
2018,02,25,09,51,33.80
2018,02,25,09,52,24.20
2018,02,25,09,53,30.60
2018,02,25,09,54,30.60
2018,02,25,09,55,29.00
2018,02,25,09,56,37.00
2018,02,25,09,57,25.70
2018,02,25,09,58,32.20
2018,02,25,09,59,20.90
2018,02,25,10,00,32.20
2018,02,25,10,01,37.00
2018,02,25,10,02,37.00
2018,02,25,10,03,25.70
2018,02,25,10,04,30.60
2018,02,25,10,05,24.20
2018,02,25,10,06,29.00
2018,02,25,10,07,25.70
2018,02,25,10,08,35.40
2018,02,25,10,09,20.90
2018,02,25,10,10,27.40
2018,02,25,10,11,20.90
2018,02,25,10,12,32.20
2018,02,25,10,13,29.00
2018,02,25,10,14,25.70
2018,02,25,10,15,32.20
2018,02,25,10,16,30.60
2018,02,25,10,17,30.60
2018,02,25,10,18,27.40
2018,02,25,10,19,45.10
2018,02,25,10,20,22.50
2018,02,25,10,21,25.70
2018,02,25,10,22,35.40
2018,02,25,10,23,24.20
2018,02,25,10,24,29.00
2018,02,25,10,25,38.60
2018,02,25,10,26,35.40
2018,02,25,10,27,38.60
2018,02,25,10,28,29.00
2018,02,25,10,29,30.60
2018,02,25,10,30,45.10
2018,02,25,10,31,29.00
2018,02,25,10,32,33.80
2018,02,25,10,33,30.60
2018,02,25,10,34,25.70
2018,02,25,10,35,33.80
2018,02,25,10,36,22.50
2018,02,25,10,37,19.30
2018,02,25,10,38,22.50
2018,02,25,10,39,27.40
2018,02,25,10,40,19.30
2018,02,25,10,41,24.20
2018,02,25,10,42,24.20
2018,02,25,10,43,25.70
2018,02,25,10,44,20.90
2018,02,25,10,45,17.70
2018,02,25,10,46,19.30
2018,02,25,10,47,22.50
2018,02,25,10,48,17.70
2018,02,25,10,49,16.10
2018,02,25,10,50,19.30
2018,02,25,10,51,20.90
2018,02,25,10,52,17.70
2018,02,25,10,53,12.90
2018,02,25,10,54,19.30
2018,02,25,10,55,12.90
2018,02,25,10,56,24.20
2018,02,25,10,57,20.90
2018,02,25,10,58,20.90
2018,02,25,10,59,16.10
2018,02,25,11,00,19.30
2018,02,25,11,01,22.50
2018,02,25,11,02,19.30
2018,02,25,11,03,27.40
2018,02,25,11,04,37.00
2018,02,25,11,05,32.20
2018,02,25,11,06,30.60
2018,02,25,11,07,37.00
2018,02,25,11,08,32.20
2018,02,25,11,09,24.20
2018,02,25,11,10,27.40
2018,02,25,11,11,40.20
2018,02,25,11,12,35.40
2018,02,25,11,13,19.30
2018,02,25,11,14,29.00
2018,02,25,11,15,37.00
2018,02,25,11,16,25.70
2018,02,25,11,17,20.90
2018,02,25,11,18,32.20
2018,02,25,11,19,25.70
2018,02,25,11,20,33.80
2018,02,25,11,21,24.20
2018,02,25,11,22,35.40
2018,02,25,11,23,45.10
2018,02,25,11,24,27.40
2018,02,25,11,25,24.20
2018,02,25,11,26,22.50
2018,02,25,11,27,19.30
2018,02,25,11,28,25.70
2018,02,25,11,29,24.20
2018,02,25,11,30,24.20
2018,02,25,11,31,27.40
2018,02,25,11,32,30.60
2018,02,25,11,33,27.40
2018,02,25,11,34,27.40
2018,02,25,11,35,30.60
2018,02,25,11,36,30.60
2018,02,25,11,37,40.20
2018,02,25,11,38,33.80
2018,02,25,11,39,38.60
2018,02,25,11,40,35.40
2018,02,25,11,41,33.80
2018,02,25,11,42,35.40
2018,02,25,11,43,37.00
2018,02,25,11,44,32.20
2018,02,25,11,45,38.60
2018,02,25,11,46,33.80
2018,02,25,11,47,46.70
2018,02,25,11,48,29.00
2018,02,25,11,49,29.00
2018,02,25,11,50,32.20
2018,02,25,11,51,29.00
2018,02,25,11,52,24.20
2018,02,25,11,53,24.20
2018,02,25,11,54,20.90
2018,02,25,11,55,24.20
2018,02,25,11,56,32.20
2018,02,25,11,57,32.20
2018,02,25,11,58,32.20
2018,02,25,11,59,25.70
2018,02,25,12,00,27.40
2018,02,25,12,01,27.40
2018,02,25,12,02,22.50
2018,02,25,12,03,22.50
2018,02,25,12,04,24.20
2018,02,25,12,05,32.20
2018,02,25,12,06,27.40
2018,02,25,12,07,20.90
2018,02,25,12,08,14.50
2018,02,25,12,09,22.50
2018,02,25,12,10,22.50
2018,02,25,12,11,22.50
2018,02,25,12,12,22.50
2018,02,25,12,13,29.00
2018,02,25,12,14,17.70
2018,02,25,12,15,25.70
2018,02,25,12,16,30.60
2018,02,25,12,17,24.20
2018,02,25,12,18,22.50
2018,02,25,12,19,19.30
2018,02,25,12,20,35.40
2018,02,25,12,21,29.00
2018,02,25,12,22,29.00
2018,02,25,12,23,30.60
2018,02,25,12,24,30.60
2018,02,25,12,25,19.30
2018,02,25,12,26,16.10
2018,02,25,12,27,22.50
2018,02,25,12,28,22.50
2018,02,25,12,29,14.50
2018,02,25,12,30,9.60
2018,02,25,12,31,20.90
2018,02,25,12,32,16.10
2018,02,25,12,33,22.50
2018,02,25,12,34,17.70
2018,02,25,12,35,17.70
2018,02,25,12,36,20.90
2018,02,25,12,37,12.90
2018,02,25,12,38,17.70
2018,02,25,12,39,22.50
2018,02,25,12,40,19.30
2018,02,25,12,41,19.30
2018,02,25,12,42,20.90
2018,02,25,12,43,16.10
2018,02,25,12,44,19.30
2018,02,25,12,45,25.70
2018,02,25,12,46,24.20
2018,02,25,12,47,24.20
2018,02,25,12,48,19.30
2018,02,25,12,49,20.90
2018,02,25,12,50,24.20
2018,02,25,12,51,17.70
2018,02,25,12,52,20.90
2018,02,25,12,53,16.10
2018,02,25,12,54,16.10
2018,02,25,12,55,16.10
2018,02,25,12,56,16.10
2018,02,25,12,57,16.10
2018,02,25,12,58,17.70
2018,02,25,12,59,22.50
2018,02,25,13,00,22.50
2018,02,25,13,01,20.90
2018,02,25,13,02,16.10
2018,02,25,13,03,16.10
2018,02,25,13,04,19.30
2018,02,25,13,05,29.00
2018,02,25,13,06,33.80
2018,02,25,13,07,20.90
2018,02,25,13,08,16.10
2018,02,25,13,09,22.50
2018,02,25,13,10,22.50
2018,02,25,13,11,22.50
2018,02,25,13,12,20.90
2018,02,25,13,13,24.20
2018,02,25,13,14,32.20
2018,02,25,13,15,24.20
2018,02,25,13,16,20.90
2018,02,25,13,17,24.20
2018,02,25,13,18,25.70
2018,02,25,13,19,20.90
2018,02,25,13,20,16.10
2018,02,25,13,21,20.90
2018,02,25,13,22,22.50
2018,02,25,13,23,27.40
2018,02,25,13,24,20.90
2018,02,25,13,25,24.20
2018,02,25,13,26,20.90
2018,02,25,13,27,17.70
2018,02,25,13,28,19.30
2018,02,25,13,29,17.70
2018,02,25,13,30,14.50
2018,02,25,13,31,19.30
2018,02,25,13,32,17.70
2018,02,25,13,33,16.10
2018,02,25,13,34,17.70
2018,02,25,13,35,16.10
2018,02,25,13,36,20.90
2018,02,25,13,37,17.70
2018,02,25,13,38,12.90
2018,02,25,13,39,11.30
2018,02,25,13,40,12.90
2018,02,25,13,41,17.70
2018,02,25,13,42,14.50
2018,02,25,13,43,22.50
2018,02,25,13,44,24.20
2018,02,25,13,45,24.20
2018,02,25,13,46,24.20
2018,02,25,13,47,19.30
2018,02,25,13,48,17.70
2018,02,25,13,49,16.10
2018,02,25,13,50,22.50
2018,02,25,13,51,24.20
2018,02,25,13,52,16.10
2018,02,25,13,53,17.70
2018,02,25,13,54,19.30
2018,02,25,13,55,25.70
2018,02,25,13,56,22.50
2018,02,25,13,57,19.30
2018,02,25,13,58,20.90
2018,02,25,13,59,17.70
2018,02,25,14,00,17.70
2018,02,25,14,01,19.30
2018,02,25,14,02,16.10
2018,02,25,14,03,16.10
2018,02,25,14,04,22.50
2018,02,25,14,05,25.70
2018,02,25,14,06,25.70
2018,02,25,14,07,22.50
2018,02,25,14,08,20.90
2018,02,25,14,09,16.10
2018,02,25,14,10,17.70
2018,02,25,14,11,16.10
2018,02,25,14,12,16.10
2018,02,25,14,13,25.70
2018,02,25,14,14,27.40
2018,02,25,14,15,24.20
2018,02,25,14,16,25.70
2018,02,25,14,17,24.20
2018,02,25,14,18,20.90
2018,02,25,14,19,29.00
2018,02,25,14,20,20.90
2018,02,25,14,21,25.70
2018,02,25,14,22,17.70
2018,02,25,14,23,17.70
2018,02,25,14,24,22.50
2018,02,25,14,25,19.30
2018,02,25,14,26,19.30
2018,02,25,14,27,19.30
2018,02,25,14,28,17.70
2018,02,25,14,29,14.50
2018,02,25,14,30,16.10
2018,02,25,14,31,20.90
2018,02,25,14,32,11.30
2018,02,25,14,33,11.30
2018,02,25,14,34,14.50
2018,02,25,14,35,22.50
2018,02,25,14,36,22.50
2018,02,25,14,37,20.90
2018,02,25,14,38,17.70
2018,02,25,14,39,17.70
2018,02,25,14,40,22.50
2018,02,25,14,41,24.20
2018,02,25,14,42,22.50
2018,02,25,14,43,25.70
2018,02,25,14,44,20.90
2018,02,25,14,45,17.70
2018,02,25,14,46,25.70
2018,02,25,14,47,12.90
2018,02,25,14,48,17.70
2018,02,25,14,49,20.90
2018,02,25,14,50,17.70
2018,02,25,14,51,20.90
2018,02,25,14,52,17.70
2018,02,25,14,53,24.20
2018,02,25,14,54,22.50
2018,02,25,14,55,19.30
2018,02,25,14,56,19.30
2018,02,25,14,57,17.70
2018,02,25,14,58,16.10
2018,02,25,14,59,25.70
2018,02,25,15,00,25.70
2018,02,25,15,01,22.50
2018,02,25,15,02,22.50
2018,02,25,15,03,25.70
2018,02,25,15,04,20.90
2018,02,25,15,05,19.30
2018,02,25,15,06,16.10
2018,02,25,15,07,19.30
2018,02,25,15,08,20.90
2018,02,25,15,09,25.70
2018,02,25,15,10,24.20
2018,02,25,15,11,19.30
2018,02,25,15,12,19.30
2018,02,25,15,13,17.70
2018,02,25,15,14,24.20
2018,02,25,15,15,22.50
2018,02,25,15,16,22.50
2018,02,25,15,17,20.90
2018,02,25,15,18,20.90
2018,02,25,15,19,24.20
2018,02,25,15,20,22.50
2018,02,25,15,21,20.90
2018,02,25,15,22,19.30
2018,02,25,15,23,19.30
2018,02,25,15,24,19.30
2018,02,25,15,25,22.50
2018,02,25,15,26,25.70
2018,02,25,15,27,24.20
2018,02,25,15,28,20.90
2018,02,25,15,29,20.90
2018,02,25,15,30,22.50
2018,02,25,15,31,20.90
2018,02,25,15,32,24.20
2018,02,25,15,33,17.70
2018,02,25,15,34,14.50
2018,02,25,15,35,16.10
2018,02,25,15,36,14.50
2018,02,25,15,37,17.70
2018,02,25,15,38,17.70
2018,02,25,15,39,17.70
2018,02,25,15,40,19.30
2018,02,25,15,41,14.50
2018,02,25,15,42,22.50
2018,02,25,15,43,9.60
2018,02,25,15,44,22.50
2018,02,25,15,45,20.90
2018,02,25,15,46,20.90
2018,02,25,15,47,19.30
2018,02,25,15,48,16.10
2018,02,25,15,49,22.50
2018,02,25,15,50,20.90
2018,02,25,15,51,24.20
2018,02,25,15,52,19.30
2018,02,25,15,53,20.90
2018,02,25,15,54,29.00
2018,02,25,15,55,29.00
2018,02,25,15,56,22.50
2018,02,25,15,57,22.50
2018,02,25,15,58,17.70
2018,02,25,15,59,17.70
2018,02,25,16,00,24.20
2018,02,25,16,01,25.70
2018,02,25,16,02,25.70
2018,02,25,16,03,27.40
2018,02,25,16,04,27.40
2018,02,25,16,05,16.10
2018,02,25,16,06,24.20
2018,02,25,16,07,17.70
2018,02,25,16,08,16.10
2018,02,25,16,09,16.10
2018,02,25,16,10,14.50
2018,02,25,16,11,27.40
2018,02,25,16,12,22.50
2018,02,25,16,13,24.20
2018,02,25,16,14,19.30
2018,02,25,16,15,17.70
2018,02,25,16,16,19.30
2018,02,25,16,17,29.00
2018,02,25,16,18,19.30
2018,02,25,16,19,29.00
2018,02,25,16,20,25.70
2018,02,25,16,21,24.20
2018,02,25,16,22,24.20
2018,02,25,16,23,20.90
2018,02,25,16,24,19.30
2018,02,25,16,25,17.70
2018,02,25,16,26,19.30
2018,02,25,16,27,17.70
2018,02,25,16,28,16.10
2018,02,25,16,29,14.50
2018,02,25,16,30,19.30
2018,02,25,16,31,19.30
2018,02,25,16,32,16.10
2018,02,25,16,33,14.50
2018,02,25,16,34,14.50
2018,02,25,16,35,17.70
2018,02,25,16,36,22.50
2018,02,25,16,37,16.10
2018,02,25,16,38,19.30
2018,02,25,16,39,17.70
2018,02,25,16,40,25.70
2018,02,25,16,41,24.20
2018,02,25,16,42,16.10
2018,02,25,16,43,11.30
2018,02,25,16,44,16.10
2018,02,25,16,45,20.90
2018,02,25,16,46,20.90
2018,02,25,16,47,12.90
2018,02,25,16,48,14.50
2018,02,25,16,49,20.90
2018,02,25,16,50,16.10
2018,02,25,16,51,25.70
2018,02,25,16,52,22.50
2018,02,25,16,53,16.10
2018,02,25,16,54,17.70
2018,02,25,16,55,20.90
2018,02,25,16,56,20.90
2018,02,25,16,57,14.50
2018,02,25,16,58,14.50
2018,02,25,16,59,14.50
2018,02,25,17,00,20.90
2018,02,25,17,01,16.10
2018,02,25,17,02,20.90
2018,02,25,17,03,24.20
2018,02,25,17,04,20.90
2018,02,25,17,05,25.70
2018,02,25,17,06,19.30
2018,02,25,17,07,19.30
2018,02,25,17,08,20.90
2018,02,25,17,09,22.50
2018,02,25,17,10,20.90
2018,02,25,17,11,16.10
2018,02,25,17,12,17.70
2018,02,25,17,13,16.10
2018,02,25,17,14,11.30
2018,02,25,17,15,12.90
2018,02,25,17,16,14.50
2018,02,25,17,17,14.50
2018,02,25,17,18,12.90
2018,02,25,17,19,8.10
2018,02,25,17,20,9.60
2018,02,25,17,21,16.10
2018,02,25,17,22,11.30
2018,02,25,17,23,14.50